Taba International, Egypt

4:39 AM EET on February 24, 2018 (GMT +0200)
Taba International

Weather History for HETB - June, 2013

Change the Weather History Date:

Saturday, June 15, 2013

  Actual Average Record
Temperature  
Mean Temperature 71 °F -  
Max Temperature 82 °F - - ()
Min Temperature 60 °F - - ()
Cooling Degree Days 6    
Growing Degree Days 21 (Base 50)    
Moisture  
Dew Point 48 °F    
Average Humidity 48    
Maximum Humidity 88    
Minimum Humidity 20    
Precipitation  
Precipitation 0.00 in - - ()
Sea Level Pressure  
Sea Level Pressure 29.95 in    
Wind  
Wind Speed 10 mph ()    
Max Wind Speed 20 mph    
Max Gust Speed -    
T = Trace of Precipitation, MM = Missing Value Source: Averaged Metar Reports

Daily Weather History Graph

Daily Weather History Graph

Search for Another Location

Airport or City:

Trip Planner

Search our weather history database for the weather conditions in past years. The results will help you decide how hot, cold, wet, or windy it might be!

Date:

Astronomy

Jun. 15, 2013 Rise Set
Actual Time 4:40 AM EET 6:42 PM EET
Civil Twilight 4:13 AM EET 7:09 PM EET
Nautical Twilight 3:40 AM EET 7:42 PM EET
Astronomical Twilight 3:04 AM EET 8:18 PM EET
Moon 10:29 AM EET (6/15) 11:04 PM EET (6/15)
Length of Visible Light 14h 56m
Length of Day
14h 02m
Waxing Crescent, 37% of the Moon is Illuminated
Jun 15
Waxing Crescent
Jun 16
First Quarter
Jun 23
Full
Jun 30
Last Quarter
Jul 8
New

Hourly Weather History & Observations

Time (EET) Temp. Dew Point Humidity Pressure Visibility Wind Dir Wind Speed Gust Speed Precip Events Conditions
1:00 AM 64.4 °F 50.0 °F 59% 29.95 in - WNW 11.5 mph - N/A   Clear
2:00 AM 62.6 °F 51.8 °F 68% 29.95 in - West 10.4 mph - N/A   Clear
3:00 AM 60.8 °F 53.6 °F 77% 29.95 in - West 8.1 mph - N/A   Clear
4:00 AM 60.8 °F 55.4 °F 82% 29.95 in - WNW 6.9 mph - N/A   Clear
5:00 AM 60.8 °F 51.8 °F 72% 29.95 in - WNW 5.8 mph - N/A   Clear
6:00 AM 62.6 °F 59.0 °F 88% 29.95 in - WNW 10.4 mph - N/A   Clear
7:00 AM 64.4 °F 53.6 °F 68% 29.95 in - WNW 11.5 mph - N/A   Clear
7:53 AM 68.0 °F 50.0 °F 52% 29.98 in - WNW 9.2 mph - N/A   Clear
8:52 AM 69.8 °F 48.2 °F 46% 29.98 in - NW 10.4 mph - N/A   Clear
9:00 AM 69.8 °F 48.2 °F 46% 29.98 in - NW 10.4 mph - N/A   Clear
10:00 AM 73.4 °F 46.4 °F 38% 29.95 in - NW 10.4 mph - N/A   Clear
11:00 AM 75.2 °F 41.0 °F 29% 29.95 in - NW 9.2 mph - N/A   Clear
12:00 PM 77.0 °F 41.0 °F 28% 29.95 in - NW 6.9 mph - N/A   Clear
1:00 PM 78.8 °F 41.0 °F 26% 29.95 in - NW 8.1 mph - N/A   Clear
2:00 PM 82.4 °F 42.8 °F 25% 29.92 in - WNW 10.4 mph - N/A   Clear
4:00 PM 82.4 °F 37.4 °F 20% 29.89 in - NW 13.8 mph - N/A   Clear
5:00 PM 82.4 °F 37.4 °F 20% 29.89 in - WNW 16.1 mph - N/A   Clear
6:00 PM 80.6 °F 37.4 °F 21% 29.92 in - WNW 17.3 mph - N/A   Clear
7:00 PM 77.0 °F 41.0 °F 28% 29.92 in - WNW 16.1 mph - N/A   Clear
8:00 PM 71.6 °F 51.8 °F 50% 29.95 in - NW 19.6 mph - N/A   Clear
9:00 PM 69.8 °F 51.8 °F 53% 29.95 in - NW 18.4 mph - N/A   Clear
10:00 PM 68.0 °F 51.8 °F 56% 29.95 in - WNW 15.0 mph - N/A   Clear
11:00 PM 66.2 °F 51.8 °F 60% 29.98 in - WNW 13.8 mph - N/A   Clear